JE4YKI-13 Weather Reports


time (UTC)temp
F
wind
direction
speed
knots
gust
knots
rain 1hr
in
rain 24hr
in
rain mn
in
humidity
%
barometer
mb
20260505093006 64 244 0.0 0.0 0.00 0.00 0.00 46 1017.6
20260505092006 65 246 0.9 0.0 0.00 0.00 0.00 43 1017.6
20260505091006 66 232 0.0 0.0 0.00 0.00 0.00 41 1017.5
20260505090005 66 248 0.0 0.0 0.00 0.00 0.00 41 1017.6
20260505085005 66 269 0.0 0.0 0.00 0.00 0.00 40 1017.4
20260505084005 67 177 0.0 0.0 0.00 0.00 0.00 40 1017.4
20260505083004 67 262 0.0 0.0 0.00 0.00 0.00 39 1017.2
20260505082004 68 180 0.0 0.0 0.00 0.00 0.00 40 1017.2
20260505081003 69 238 2.6 0.0 0.00 0.00 0.00 40 1017.2
20260505080003 69 172 0.9 0.0 0.00 0.00 0.00 39 1017.2
20260505075002 70 292 4.3 0.0 0.00 0.00 0.00 38 1017.1
20260505074002 70 205 2.6 0.0 0.00 0.00 0.00 37 1017.2
20260505073002 71 201 5.2 0.0 0.00 0.00 0.00 36 1017.2
20260505072002 71 140 1.7 0.0 0.00 0.00 0.00 34 1017.1
20260505071001 72 142 1.7 0.0 0.00 0.00 0.00 32 1017.2
20260505070001 72 248 1.7 0.0 0.00 0.00 0.00 32 1017.3
20260505065030 72 161 1.7 0.0 0.00 0.00 0.00 32 1017.3
20260505064000 72 169 1.7 0.0 0.00 0.00 0.00 31 1017.4
20260505063000 72 160 0.9 0.0 0.00 0.00 0.00 35 1017.3
20260505061959 71 90 3.5 0.0 0.00 0.00 0.00 36 1017.3
20260505060957 72 136 1.7 0.0 0.00 0.00 0.00 34 1017.3
20260505055957 71 139 3.5 0.0 0.00 0.00 0.00 33 1017.5
20260505054956 71 99 3.5 0.0 0.00 0.00 0.00 33 1017.6
20260505053955 71 98 4.3 0.0 0.00 0.00 0.00 34 1017.7
20260505052954 71 79 2.6 0.0 0.00 0.00 0.00 34 1018.0
20260505051954 71 104 3.5 0.0 0.00 0.00 0.00 31 1018.2
20260505040949 71 75 4.3 0.0 0.00 0.00 0.00 31 1019.1
20260505035949 70 97 0.9 0.0 0.00 0.00 0.00 32 1019.1
20260505034949 70 121 0.0 0.0 0.00 0.00 0.00 31 1019.1
20260505033948 70 69 3.5 0.0 0.00 0.00 0.00 32 1019.3
20260505032948 70 158 1.7 0.0 0.00 0.00 0.00 33 1019.5
20260505030947 69 126 0.0 0.0 0.00 0.00 0.00 41 1019.8
20260505025946 69 73 0.0 0.0 0.00 0.00 0.00 42 1019.8
20260505024946 68 124 0.0 0.0 0.00 0.00 0.00 45 1019.9
20260505023946 68 130 0.0 0.0 0.00 0.00 0.00 46 1020.1
20260505022945 68 75 0.0 0.0 0.00 0.00 0.00 48 1020.2
20260505020945 66 30 0.0 0.0 0.00 0.00 0.00 54 1020.3
20260505015943 65 117 0.0 0.0 0.00 0.00 0.00 58 1020.3
20260505014943 64 83 0.0 0.0 0.00 0.00 0.00 58 1020.4
20260505013941 65 114 0.0 0.0 0.00 0.00 0.00 58 1020.5
20260505012941 64 90 0.0 0.0 0.00 0.00 0.00 60 1020.5
20260505011941 63 136 0.0 0.0 0.00 0.00 0.00 60 1020.5
20260505010940 63 117 0.0 0.0 0.00 0.00 0.00 60 1020.5
20260505005940 62 66 0.0 0.0 0.00 0.00 0.00 64 1020.4
20260505004939 62 84 0.0 0.0 0.00 0.00 0.00 63 1020.3
20260505003939 61 101 0.0 0.0 0.00 0.00 0.00 65 1020.3
20260505002939 60 127 0.0 0.0 0.00 0.00 0.00 66 1020.3
20260505001939 60 85 0.0 0.0 0.00 0.00 0.00 68 1020.3
20260505000938 60 64 0.0 0.0 0.00 0.00 0.00 67 1020.2
20260504235938 60 75 0.0 0.0 0.00 0.00 0.00 69 1020.3
20260504234937 58 102 0.0 0.0 0.00 0.00 0.00 70 1020.3
20260504233937 58 150 0.0 0.0 0.00 0.00 0.00 71 1020.3
20260504232936 58 117 0.0 0.0 0.00 0.00 0.00 71 1020.5
20260504231936 58 98 0.0 0.0 0.00 0.00 0.00 69 1020.4
20260504230936 58 124 0.0 0.0 0.00 0.00 0.00 70 1020.4
20260504225935 57 117 0.0 0.0 0.00 0.00 0.00 71 1020.3
20260504224935 57 110 0.0 0.0 0.00 0.00 0.00 72 1020.3
20260504223935 56 127 0.0 0.0 0.00 0.00 0.00 72 1020.4
20260504222934 56 116 0.0 0.0 0.00 0.00 0.00 73 1020.3
20260504221934 56 117 0.0 0.0 0.00 0.00 0.00 76 1020.3
20260504220932 54 13 0.0 0.0 0.00 0.00 0.00 78 1020.3
20260504215932 54 16 0.0 0.0 0.00 0.00 0.00 80 1020.3
20260504214931 53 72 0.0 0.0 0.00 0.00 0.00 80 1020.1
20260504213931 52 300 0.0 0.0 0.00 0.00 0.00 83 1020.0
20260504212931 51 272 0.0 0.0 0.00 0.00 0.00 83 1019.9
20260504211930 51 287 0.0 0.0 0.00 0.00 0.00 85 1019.7
20260504210930 50 278 0.0 0.0 0.00 0.00 0.00 85 1019.7
20260504205930 49 302 0.0 0.0 0.00 0.00 0.00 87 1019.6
20260504204930 49 311 0.0 0.0 0.00 0.00 0.00 90 1019.5
20260504203929 48 281 0.0 0.0 0.00 0.00 0.00 92 1019.5
20260504202928 47 281 0.0 0.0 0.00 0.00 0.00 92 1019.4
20260504201928 47 295 0.0 0.0 0.00 0.00 0.00 91 1019.2
20260504200928 47 277 0.0 0.0 0.00 0.00 0.00 90 1019.2
20260504195927 48 281 0.0 0.0 0.00 0.00 0.00 89 1019.0
20260504194927 48 129 0.0 0.0 0.00 0.00 0.00 87 1019.0
20260504193927 49 129 0.0 0.0 0.00 0.00 0.00 87 1018.8
20260504192926 50 113 0.0 0.0 0.00 0.00 0.00 86 1018.6
20260504191926 50 24 0.0 0.0 0.00 0.00 0.00 85 1018.6
20260504190925 50 286 0.0 0.0 0.00 0.00 0.00 84 1018.4
20260504184925 50 280 0.0 0.0 0.00 0.00 0.00 85 1018.3
20260504183925 50 307 0.0 0.0 0.00 0.00 0.00 85 1018.2
20260504182924 50 297 1.7 0.0 0.00 0.00 0.00 85 1018.2
20260504181924 50 256 0.0 0.0 0.00 0.00 0.00 84 1018.1
20260504180923 51 278 0.0 0.0 0.00 0.00 0.00 84 1018.1
20260504175923 51 280 0.0 0.0 0.00 0.00 0.00 84 1017.9
20260504174922 51 336 0.0 0.0 0.00 0.00 0.00 84 1017.7
20260504173922 51 295 0.0 0.0 0.00 0.00 0.00 84 1017.6
20260504172922 50 267 0.0 0.0 0.00 0.00 0.00 85 1017.5
20260504171921 50 304 0.0 0.0 0.00 0.00 0.00 87 1017.4
20260504170921 50 281 0.0 0.0 0.00 0.00 0.00 86 1017.4
20260504150916 52 294 0.0 0.0 0.00 0.00 0.00 82 1017.1
20260504140913 52 285 0.0 0.0 0.00 0.00 0.00 81 1017.3